timestamp,wind_dir_avg,wind_spd_avg,wind_spd_max_dir,wind_spd_gust,battery_voltage,lat,long
2021-07-14 00:04:01+00:00,213.0,5.68,218.0,6.13,13.21,47.59359,-54.27349
2021-07-14 00:14:01+00:00,217.0,4.76,224.0,5.97,12.73,47.59359,-54.27349
2021-07-14 00:24:01+00:00,220.0,4.06,224.0,4.71,12.73,47.59359,-54.27349
2021-07-14 00:34:01+00:00,213.0,3.38,215.0,3.63,12.73,47.59359,-54.27349
2021-07-14 00:44:01+00:00,214.0,3.05,211.0,3.85,12.73,47.59359,-54.27349
2021-07-14 00:54:01+00:00,208.0,3.37,216.0,3.63,12.73,47.59359,-54.27349
2021-07-14 01:04:01+00:00,197.0,2.47,197.0,2.63,12.73,47.59359,-54.27349
2021-07-14 01:14:01+00:00,188.0,1.82,195.0,1.93,12.65,47.59359,-54.27349
2021-07-14 01:24:01+00:00,171.0,1.27,175.0,1.38,12.65,47.59359,-54.27349
2021-07-14 01:34:01+00:00,164.0,1.19,164.0,1.37,12.65,47.59359,-54.27349
2021-07-14 01:44:01+00:00,141.0,1.33,140.0,1.49,12.65,47.59359,-54.27349
2021-07-14 01:54:01+00:00,166.0,0.88,163.0,0.97,12.65,47.59359,-54.27349
2021-07-14 02:04:01+00:00,127.0,0.78,133.0,0.98,12.65,47.59359,-54.27349
2021-07-14 02:14:00+00:00,143.0,1.33,144.0,1.45,12.57,47.59359,-54.27349
2021-07-14 02:24:00+00:00,119.0,1.98,115.0,2.31,12.57,47.59359,-54.27349
2021-07-14 02:34:00+00:00,136.0,1.57,134.0,1.75,12.57,47.59359,-54.27349
2021-07-14 02:44:00+00:00,160.0,0.98,176.0,1.3,12.57,47.59359,-54.27349
2021-07-14 02:54:00+00:00,132.0,0.97,130.0,1.25,12.57,47.59359,-54.27349
2021-07-14 03:04:00+00:00,114.0,0.69,111.0,1.0,12.57,47.59359,-54.27349
2021-07-14 03:14:01+00:00,333.0,0.33,323.0,0.56,12.65,47.59359,-54.27349
2021-07-14 03:24:01+00:00,108.0,0.22,117.0,0.51,12.65,47.59359,-54.27349
2021-07-14 03:34:01+00:00,332.0,0.55,321.0,0.69,12.65,47.59359,-54.27349
2021-07-14 03:44:01+00:00,0.0,1.83,1.0,2.04,12.65,47.59359,-54.27349
2021-07-14 03:54:01+00:00,5.0,1.53,5.0,1.8,12.65,47.59359,-54.27349
2021-07-14 04:04:01+00:00,75.0,0.44,69.0,0.72,12.65,47.59359,-54.27349
2021-07-14 04:14:00+00:00,213.0,1.73,208.0,2.29,12.57,47.59359,-54.27349
2021-07-14 04:24:00+00:00,235.0,4.91,238.0,5.92,12.57,47.59359,-54.27349
2021-07-14 04:34:00+00:00,228.0,4.87,213.0,5.91,12.57,47.59359,-54.27349
2021-07-14 04:44:00+00:00,225.0,5.54,231.0,6.34,12.57,47.59359,-54.27349
2021-07-14 04:54:00+00:00,220.0,6.4,219.0,7.4,12.57,47.59359,-54.27349
2021-07-14 05:04:00+00:00,227.0,5.2,225.0,6.08,12.57,47.59359,-54.27349
2021-07-14 05:14:00+00:00,225.0,5.45,225.0,6.73,12.57,47.59359,-54.27349
2021-07-14 05:24:00+00:00,222.0,6.25,228.0,7.42,12.57,47.59359,-54.27349
2021-07-14 05:34:00+00:00,219.0,5.97,221.0,6.79,12.57,47.59359,-54.27349
2021-07-14 05:44:00+00:00,227.0,5.59,225.0,6.52,12.57,47.59359,-54.27349
2021-07-14 05:54:00+00:00,238.0,4.26,247.0,5.36,12.57,47.59359,-54.27349
2021-07-14 06:04:00+00:00,226.0,4.75,226.0,5.47,12.57,47.59359,-54.27349
2021-07-14 06:14:00+00:00,222.0,4.09,219.0,4.8,12.57,47.59359,-54.27349
2021-07-14 06:24:00+00:00,214.0,3.99,218.0,4.44,12.57,47.59359,-54.27349
2021-07-14 06:34:00+00:00,215.0,3.76,212.0,4.25,12.57,47.59359,-54.27349
2021-07-14 06:44:00+00:00,219.0,4.1,226.0,5.25,12.57,47.59359,-54.27349
2021-07-14 06:54:00+00:00,224.0,4.21,218.0,4.86,12.57,47.59359,-54.27349
2021-07-14 07:04:00+00:00,225.0,4.02,224.0,4.73,12.57,47.59359,-54.27349
2021-07-14 07:14:00+00:00,231.0,3.42,227.0,3.89,12.49,47.59359,-54.27349
2021-07-14 07:24:00+00:00,229.0,3.55,225.0,4.0,12.49,47.59359,-54.27349
2021-07-14 07:34:00+00:00,243.0,2.65,244.0,2.97,12.49,47.59359,-54.27349
2021-07-14 07:44:00+00:00,257.0,2.14,242.0,2.75,12.49,47.59359,-54.27349
2021-07-14 07:54:00+00:00,351.0,1.09,348.0,1.29,12.49,47.59359,-54.27349
2021-07-14 08:04:00+00:00,355.0,0.99,352.0,1.35,12.49,47.59359,-54.27349
2021-07-14 08:14:01+00:00,322.0,1.06,314.0,1.39,12.41,47.59359,-54.27349
2021-07-14 08:24:01+00:00,256.0,1.05,251.0,1.68,12.41,47.59359,-54.27349
2021-07-14 08:34:01+00:00,212.0,1.88,239.0,2.88,12.41,47.59359,-54.27349
2021-07-14 08:44:01+00:00,237.0,2.72,240.0,3.11,12.41,47.59359,-54.27349
2021-07-14 08:54:01+00:00,143.0,0.98,113.0,2.52,12.41,47.59359,-54.27349
2021-07-14 09:04:01+00:00,125.0,1.26,110.0,2.72,12.41,47.59359,-54.27349
2021-07-14 09:14:01+00:00,257.0,1.68,267.0,2.48,12.65,47.59359,-54.27349
2021-07-14 09:24:01+00:00,264.0,2.26,269.0,3.0,12.65,47.59359,-54.27349
2021-07-14 09:34:01+00:00,26.0,1.17,60.0,2.37,12.65,47.59359,-54.27349
2021-07-14 09:44:01+00:00,275.0,0.1,230.0,0.49,12.65,47.59359,-54.27349
2021-07-14 09:54:01+00:00,85.0,0.13,100.0,0.33,12.65,47.59359,-54.27349
2021-07-14 10:04:01+00:00,195.0,1.23,201.0,1.54,12.65,47.59359,-54.27349
2021-07-14 10:14:01+00:00,189.0,1.5,199.0,1.85,13.44,47.59359,-54.27349
2021-07-14 10:24:01+00:00,171.0,2.14,145.0,2.9,13.44,47.59359,-54.27349
2021-07-14 10:34:01+00:00,193.0,2.64,196.0,3.82,13.44,47.59359,-54.27349
2021-07-14 10:44:01+00:00,194.0,2.82,198.0,3.01,13.44,47.59359,-54.27349
2021-07-14 10:54:01+00:00,213.0,2.46,216.0,3.02,13.44,47.59359,-54.27349
2021-07-14 11:04:01+00:00,187.0,2.59,193.0,2.89,13.44,47.59359,-54.27349
2021-07-14 11:14:01+00:00,196.0,2.66,198.0,2.95,13.76,47.59359,-54.27349
2021-07-14 11:24:01+00:00,195.0,3.16,194.0,3.59,13.76,47.59359,-54.27349
2021-07-14 11:34:01+00:00,183.0,2.85,161.0,3.33,13.76,47.59359,-54.27349
2021-07-14 11:44:01+00:00,154.0,2.88,142.0,3.6,13.76,47.59359,-54.27349
2021-07-14 11:54:01+00:00,155.0,3.52,148.0,3.94,13.76,47.59359,-54.27349
2021-07-14 12:04:01+00:00,156.0,3.74,145.0,4.3,13.76,47.59359,-54.27349
2021-07-14 12:14:01+00:00,154.0,3.9,150.0,4.38,13.76,47.59359,-54.27349
2021-07-14 12:24:01+00:00,155.0,3.89,148.0,4.36,13.76,47.59359,-54.27349
2021-07-14 12:34:01+00:00,167.0,3.84,150.0,4.61,13.76,47.59359,-54.27349
2021-07-14 12:44:01+00:00,157.0,4.45,150.0,4.92,13.76,47.59359,-54.27349
2021-07-14 12:54:01+00:00,168.0,4.53,159.0,5.0,13.76,47.59359,-54.27349
2021-07-14 13:04:01+00:00,182.0,4.21,194.0,4.71,13.76,47.59359,-54.27349
2021-07-14 13:14:01+00:00,194.0,4.29,199.0,4.76,14.32,47.59359,-54.27349
2021-07-14 13:24:01+00:00,205.0,5.44,211.0,5.95,14.32,47.59359,-54.27349
2021-07-14 13:34:01+00:00,210.0,6.37,210.0,6.87,14.32,47.59359,-54.27349
2021-07-14 13:44:01+00:00,204.0,6.63,202.0,7.2,14.32,47.59359,-54.27349
2021-07-14 13:54:01+00:00,209.0,6.57,199.0,8.67,14.32,47.59359,-54.27349
2021-07-14 14:04:01+00:00,210.0,7.21,210.0,8.01,14.32,47.59359,-54.27349
2021-07-14 14:14:00+00:00,212.0,7.5,213.0,8.21,14.32,47.59359,-54.27349
2021-07-14 14:24:00+00:00,207.0,6.7,207.0,8.03,14.32,47.59359,-54.27349
2021-07-14 14:34:00+00:00,204.0,7.13,207.0,7.93,14.32,47.59359,-54.27349
2021-07-14 14:44:00+00:00,205.0,8.28,205.0,8.73,14.32,47.59359,-54.27349
2021-07-14 14:54:00+00:00,208.0,7.72,208.0,9.0,14.32,47.59359,-54.27349
2021-07-14 15:04:00+00:00,208.0,8.94,210.0,9.85,14.32,47.59359,-54.27349
2021-07-14 15:14:01+00:00,210.0,8.66,211.0,9.56,14.32,47.59359,-54.27349
2021-07-14 15:24:01+00:00,211.0,8.69,212.0,10.07,14.32,47.59359,-54.27349
2021-07-14 15:34:01+00:00,209.0,8.65,210.0,9.66,14.32,47.59359,-54.27349
2021-07-14 15:44:01+00:00,210.0,8.68,214.0,9.49,14.32,47.59359,-54.27349
2021-07-14 15:54:01+00:00,209.0,8.61,210.0,9.58,14.32,47.59359,-54.27349
2021-07-14 16:04:01+00:00,208.0,8.56,213.0,9.88,14.32,47.59359,-54.27349
2021-07-14 16:14:01+00:00,209.0,9.17,208.0,10.86,14.32,47.59359,-54.27349
2021-07-14 16:24:01+00:00,208.0,9.2,210.0,10.22,14.32,47.59359,-54.27349
2021-07-14 16:34:01+00:00,207.0,9.22,207.0,10.01,14.32,47.59359,-54.27349
2021-07-14 16:44:01+00:00,210.0,9.47,213.0,11.0,14.32,47.59359,-54.27349
2021-07-14 16:54:01+00:00,210.0,9.52,212.0,10.62,14.32,47.59359,-54.27349
2021-07-14 17:04:01+00:00,211.0,9.34,213.0,10.4,14.32,47.59359,-54.27349
2021-07-14 17:14:01+00:00,210.0,9.36,213.0,10.43,14.16,47.59359,-54.27349
2021-07-14 17:24:01+00:00,208.0,8.15,208.0,9.72,14.16,47.59359,-54.27349
2021-07-14 17:34:01+00:00,208.0,8.99,208.0,10.48,14.16,47.59359,-54.27349
2021-07-14 17:44:01+00:00,210.0,9.39,211.0,10.53,14.16,47.59359,-54.27349
2021-07-14 17:54:01+00:00,211.0,10.32,214.0,11.48,14.16,47.59359,-54.27349
2021-07-14 18:04:01+00:00,213.0,10.41,215.0,11.24,14.16,47.59359,-54.27349
2021-07-14 18:14:01+00:00,209.0,10.26,210.0,10.98,13.92,47.59359,-54.27349
2021-07-14 18:24:01+00:00,210.0,9.91,210.0,10.76,13.92,47.59359,-54.27349
2021-07-14 18:34:01+00:00,212.0,9.24,212.0,9.93,13.92,47.59359,-54.27349
2021-07-14 18:44:01+00:00,207.0,9.49,206.0,10.74,13.92,47.59359,-54.27349
2021-07-14 18:54:01+00:00,207.0,9.6,212.0,10.98,13.92,47.59359,-54.27349
2021-07-14 19:04:01+00:00,209.0,8.83,213.0,9.6,13.92,47.59359,-54.27349
2021-07-14 19:14:01+00:00,210.0,9.21,215.0,10.42,13.84,47.59359,-54.27349
2021-07-14 19:24:01+00:00,210.0,9.72,214.0,10.58,13.84,47.59359,-54.27349
2021-07-14 19:34:01+00:00,208.0,9.52,204.0,11.17,13.84,47.59359,-54.27349
2021-07-14 19:44:01+00:00,208.0,9.72,206.0,12.49,13.84,47.59359,-54.27349
2021-07-14 19:54:01+00:00,209.0,9.94,207.0,11.05,13.84,47.59359,-54.27349
2021-07-14 20:04:01+00:00,210.0,9.78,210.0,11.17,13.84,47.59359,-54.27349
2021-07-14 20:14:01+00:00,210.0,10.69,208.0,11.93,13.92,47.59359,-54.27349
2021-07-14 20:24:01+00:00,211.0,9.97,213.0,10.97,13.92,47.59359,-54.27349
2021-07-14 20:34:01+00:00,212.0,9.72,214.0,10.37,13.92,47.59359,-54.27349
2021-07-14 20:44:01+00:00,212.0,8.93,214.0,9.57,13.92,47.59359,-54.27349
2021-07-14 20:54:01+00:00,213.0,8.55,213.0,9.25,13.92,47.59359,-54.27349
2021-07-14 21:04:01+00:00,212.0,8.45,212.0,9.11,13.92,47.59359,-54.27349
2021-07-14 21:14:01+00:00,223.0,8.26,227.0,9.24,13.84,47.59359,-54.27349
2021-07-14 21:24:01+00:00,227.0,7.53,225.0,8.36,13.84,47.59359,-54.27349
2021-07-14 21:34:01+00:00,223.0,6.65,229.0,7.98,13.84,47.59359,-54.27349
2021-07-14 21:44:01+00:00,209.0,6.03,202.0,7.75,13.84,47.59359,-54.27349
2021-07-14 21:54:01+00:00,209.0,6.84,210.0,7.42,13.84,47.59359,-54.27349
2021-07-14 22:04:01+00:00,213.0,6.1,216.0,7.04,13.84,47.59359,-54.27349
2021-07-14 22:14:01+00:00,212.0,6.63,215.0,7.15,13.6,47.59359,-54.27349
2021-07-14 22:24:01+00:00,216.0,5.71,224.0,6.44,13.6,47.59359,-54.27349
2021-07-14 22:34:01+00:00,226.0,5.88,233.0,6.94,13.6,47.59359,-54.27349
2021-07-14 22:44:01+00:00,217.0,5.87,227.0,7.17,13.6,47.59359,-54.27349
2021-07-14 22:54:01+00:00,236.0,7.77,236.0,9.46,13.6,47.59359,-54.27349
2021-07-14 23:04:01+00:00,220.0,6.95,221.0,7.84,13.6,47.59359,-54.27349
2021-07-14 23:14:00+00:00,227.0,7.73,219.0,9.17,13.21,47.59359,-54.27349
2021-07-14 23:24:00+00:00,235.0,8.08,241.0,10.27,13.21,47.59359,-54.27349
2021-07-14 23:34:00+00:00,235.0,8.25,237.0,9.46,13.21,47.59359,-54.27349
2021-07-14 23:44:00+00:00,236.0,8.05,238.0,8.7,13.21,47.59359,-54.27349
2021-07-14 23:54:00+00:00,224.0,6.56,232.0,8.14,13.21,47.59359,-54.27349
